Starlink 32504

operational
NORAD ID: 62024 Int'l Des: 2024-213 Owner: SPXS Country: US Constellation: starlink
LEOCIRCULAR

About Starlink 32504

Description loading...

Live Position

Loading 3D Globe...

Upcoming Passes

Altitude History

Altitude vs Time

uPlot chart will show altitude changes over time

Two-Line Element Set

1 62024U 24213S 25307.94111442 .00027885 00000-0 94983-3 0 9995
2 62024 53.1595 32.1133 0001040 85.9754 274.1365 15.30208858 53905
Epoch: Nov 3, 2025 • Age: 11 hours

Current Status

Altitude 479.4 km
Velocity 7.63 km/s
Sub-Earth Point 46.24°N, 110.45°W
Launch Date Nov 18, 2024
Age 0.9 years
Type internet

Technical Details

Classification Payload
Mass 730.00 kg
Dry Mass 700.00 kg
Total Mass 730.00 kg
Length 0.30 m
Diameter 4.10 m
Span 29.00 m
Shape Box + pan
Manufacturer SPXS
Bus Type Starlink V2M
Phase Status In Orbit
Owner/State SPXS/US

Large Constellations

Loading constellations...